Regional Weather Roundup
Issued by NWS

Home | Current Version | Previous Version | Text Only | Print | Product List | Glossary On
Versions: 1 2 3 4 5 6 7 8 9 10 11 12 13 14 15 16 17 18 19 20 21 22 23 24 25 26 27 28 29 30 31 32 33 34 35 36 37 38 39 40 41 42 43 44 45 46 47 48 49 50
000
ASUS43 KOAX 312110
RWRNE

WEATHER ROUNDUP FOR NEBRASKA
NATIONAL WEATHER SERVICE OMAHA NE
300 PM CST SAT JAN 31 2015

NOTES: SATELLITE DATA IS BEING USED TO AUGMENT CLOUD COVER ABOVE
       12000 FEET.
       "FAIR" INDICATES FEW OR NO CLOUDS BELOW 12,000 FEET WITH NO
       SIGNIFICANT WEATHER AND/OR OBSTRUCTIONS TO VISIBILITY.

  * THESE STATIONS DO NOT REPORT WEATHER SUCH AS RAIN...SNOW OR FOG.

NEZ001>004-019>022-054>056-312200-
NEBRASKA PANHANDLE

CITY           SKY/WX    TMP DP  RH WIND       PRES   REMARKS
SCOTTSBLUFF    LGT SNOW  33  31  92 N6        29.85F FOG     WCI  28
ALLIANCE       SNOW      30  28  92 NE9       29.84F VSB 1/4 WCI  22
CHADRON        CLOUDY    31  26  82 NE13      29.91S WCI  21
KIMBALL        LGT SNOW  32  32  99 N9        29.79F WCI  24
SIDNEY         LGT SNOW  33  30  88 N7        29.82S FOG     WCI  27
$$

NEZ057>060-069>072-079>082-312200-
SOUTHWEST NEBRASKA

CITY           SKY/WX    TMP DP  RH WIND       PRES   REMARKS
NORTH PLATTE   CLOUDY    34  32  92 E5        29.84F FOG     WCI  30
IMPERIAL       LGT SNOW  34  32  92 NE6       29.83F FOG     WCI  29
LEXINGTON      CLOUDY    34  33  96 E6        29.86F FOG     WCI  29
MCCOOK         FOG       36  34  92 NE6       29.83F VSB 1   WCI  31
OGALLALA       LGT SNOW  33  33  98 NE3       29.84S
$$

NEZ005>010-023>029-035>040-094-312200-
NORTH CENTRAL NEBRASKA

CITY           SKY/WX    TMP DP  RH WIND       PRES   REMARKS
VALENTINE      FOG       24  23  96 NE16      29.96S VSB 3/4 WCI  11
AINSWORTH      CLOUDY    25  25  98 NE16      29.94S FOG     WCI  13
BROKEN BOW     LGT SNOW  35  32  88 E6        29.87F FOG     WCI  30
O`NEILL        CLOUDY    30  29  98 NE9       29.96F FOG     WCI  22
ORD            FLURRIES  34  31  88 E6        29.91F WCI  29
THEDFORD       LGT SNOW  30  30  99 NE9       29.90R WCI  21
$$

NEZ041-046>049-061>064-073>077-083>087-312200-
SOUTH CENTRAL NEBRASKA

CITY           SKY/WX    TMP DP  RH WIND       PRES   REMARKS
GRAND ISLAND   LGT SNOW  32  32 100 SE6       29.93F VSB 1   WCI  26
AURORA         LGT SNOW  33  33 100 SE8       29.92F WCI  26
HASTINGS       LGT SNOW  32  30  92 SE7       29.89F FOG     WCI  26
HEBRON         LGT SNOW  33  32  94 S12       29.93F WCI  24
HOLDREGE       CLOUDY    32  32  99 SE6       29.85F FOG     WCI  27
KEARNEY *      CLOUDY    32  30  93 SE5       29.89F WCI  27
YORK           MIX PCPN  32  32 100 SE7       29.94F WCI  26
$$

NEZ011>018-030>034-042>045-312200-
NORTHEAST NEBRASKA

CITY           SKY/WX    TMP DP  RH WIND       PRES   REMARKS
NORFOLK        CLOUDY    36  32  85 SE8       29.96F WCI  30
ALBION         FLURRIES  35  31  85 S7        29.95F WCI  29
BLAIR          FLURRIES  35  33  94 SE12      30.00F WCI  26
FREMONT        LGT SNOW  34  34  98 SE7       30.00F WCI  28
TEKAMAH        LGT SNOW  34  32  92 E7        30.02F FOG     WCI  28
WAYNE          DRIZZLE   37  34  92 S7        29.99F WCI  31
$$

NEZ050>053-065>068-078-088>093-312200-
SOUTHEAST NEBRASKA

CITY           SKY/WX    TMP DP  RH WIND       PRES   REMARKS
LINCOLN        LGT SNOW  33  32  96 SE9       29.99F FOG     WCI  25
OMAHA EPPLEY   LGT SNOW  34  33  96 SE9       30.03F FOG     WCI  27
BEATRICE       LGT SNOW  33  32  97 SE12      29.96F WCI  24
FALLS CITY     LGT RAIN  35  35 100 SE10      30.04F FOG     WCI  27
NEBRASKA CITY  LGT SNOW  33  33 100 SE12      30.01F VSB 1   WCI  24
PLATTSMOUTH    LGT SNOW  32  32  97 SE8       30.01F WCI  25
$$

NEZ044-045-051>053-067-312200-
OMAHA AREA

CITY           SKY/WX    TMP DP  RH WIND       PRES   REMARKS
OMAHA EPPLEY   LGT SNOW  34  33  96 SE9       30.03F FOG     WCI  27
BLAIR          FLURRIES  35  33  94 SE12      30.00F WCI  26
FREMONT        LGT SNOW  34  34  98 SE7       30.00F WCI  28
MILLARD        LGT RAIN  34  33  95 SE9       30.01F WCI  26
OFFUTT AFB     LGT SNOW  34  32  93 SE8       30.02F FOG     WCI  27
PLATTSMOUTH    LGT SNOW  32  32  97 SE8       30.01F WCI  25
WAHOO          LGT SNOW  33  32  94 SE7       29.99F WCI  27
$$



USA.gov is the U.S. government's official web portal to all federal, state and local government web resources and services.